DO3HUM-5 Weather Reports


Display with metric or nautical units.
time (UTC)temp
F
wind
direction
speed
MPH
gust
MPH
rain 1hr
in
rain 24hr
in
rain mn
in
humidity
%
barometer
mb
20260905043546 57 306 2.0 4.0 0.00 0.17 0.00 85 1023.2
20260905042533 57 278 1.0 4.0 0.00 0.17 0.00 85 1023.1
20260905041522 57 313 2.0 4.0 0.00 0.17 0.00 84 1022.9
20260905040032 57 312 1.0 4.0 0.00 0.17 0.00 87 1022.9
20260905035021 57 301 1.0 4.0 0.00 0.17 0.00 87 1022.9
20260905034111 57 305 2.0 4.0 0.00 0.17 0.00 87 1022.8
20260905032545 57 293 2.0 4.0 0.00 0.17 0.00 88 1022.8
20260905031533 57 311 1.0 4.0 0.00 0.17 0.00 89 1022.7
20260905030523 58 296 1.0 4.0 0.00 0.17 0.00 89 1022.7
20260905025608 58 258 1.0 4.0 0.00 0.17 0.00 89 1022.6
20260905024110 58 297 1.0 2.0 0.00 0.17 0.00 88 1022.5
20260905022534 58 288 1.0 4.0 0.00 0.17 0.00 88 1022.4
20260905021522 59 281 0.0 2.0 0.00 0.17 0.00 89 1022.3
20260905020109 59 293 0.0 2.0 0.00 0.17 0.00 89 1022.0
20260905014545 60 305 0.0 4.0 0.00 0.17 0.00 90 1021.8
20260905013531 60 286 0.0 4.0 0.00 0.17 0.00 90 1021.8
20260905012521 60 285 1.0 2.0 0.00 0.17 0.00 90 1021.8
20260905011608 60 0.0 2.0 0.00 0.17 0.00 90 1021.8
20260905010109 60 293 0.0 2.0 0.00 0.17 0.00 89 1021.6
20260905004556 60 270 1.0 2.0 0.00 0.17 0.00 89 1021.6
20260905003610 61 305 1.0 4.0 0.00 0.17 0.00 89 1021.6
20260905002111 61 236 1.0 4.0 0.00 0.17 0.00 89 1021.3
20260905000545 61 0.0 2.0 0.00 0.17 0.00 88 1021.2
20260904235534 61 315 1.0 6.0 0.00 0.17 0.00 88 1021.2
20260904234520 61 338 0.0 2.0 0.00 0.17 0.00 89 1021.1
20260904233610 61 315 0.0 4.0 0.00 0.17 0.00 88 1021.1
20260904232556 62 0.0 2.0 0.00 0.17 0.00 88 1021.3
20260904231522 61 299 2.0 6.0 0.00 0.17 0.00 87 1021.0
20260904230056 62 158 2.0 2.0 0.00 0.17 0.00 88 1021.3
20260904225109 62 317 3.0 9.0 0.00 0.17 0.00 88 1021.2
20260904224055 62 293 2.0 4.0 0.00 0.17 0.00 89 1021.1
20260904223020 62 293 1.0 9.0 0.00 0.17 0.00 90 1020.9
20260904222109 62 293 0.0 4.0 0.00 0.17 0.00 91 1020.8
20260904220520 62 287 2.0 4.0 0.00 0.17 0.00 92 1020.5
20260904215609 62 174 1.0 4.0 0.00 0.17 0.17 93 1020.6
20260904214109 61 293 0.0 2.0 0.00 0.17 0.17 93 1020.4
20260904212532 61 0.0 2.0 0.00 0.17 0.17 93 1019.9
20260904211523 61 0.0 0.0 0.00 0.17 0.17 93 1019.6
20260904210055 61 0.0 0.0 0.01 0.17 0.17 92 1019.4
20260904205021 61 0.0 2.0 0.02 0.17 0.17 92 1019.0
20260904204111 62 236 0.0 2.0 0.02 0.17 0.17 92 1019.2
20260904202556 62 0 0.0 2.0 0.02 0.17 0.17 92 1018.7
20260904201610 62 270 0.0 2.0 0.02 0.17 0.17 92 1018.9
20260904200557 63 259 1.0 2.0 0.14 0.15 0.15 92 1018.9
20260904195608 63 276 2.0 8.0 0.15 0.15 0.15 92 1018.7
20260904194109 63 296 2.0 6.0 0.14 0.14 0.14 92 1018.2
20260904192555 63 250 3.0 6.0 0.14 0.14 0.14 92 1017.8
20260904191610 63 323 3.0 9.0 0.14 0.14 0.14 91 1018.0
20260904190556 63 304 3.0 6.0 0.01 0.01 0.01 91 1018.2
20260904185608 63 306 3.0 9.0 0.00 0.00 0.00 90 1017.7
20260904184110 62 260 1.0 4.0 0.00 0.00 0.00 91 1017.4
20260904182557 62 336 1.0 4.0 0.00 0.00 0.00 90 1017.4
20260904181521 62 0.0 2.0 0.00 0.00 0.00 87 1017.4
20260904180032 64 355 0.0 4.0 0.00 0.00 0.00 82 1017.4
20260904175022 64 321 1.0 2.0 0.00 0.00 0.00 77 1017.4
20260904174109 65 345 1.0 6.0 0.00 0.00 0.00 76 1017.7
20260904172556 65 349 2.0 4.0 0.00 0.00 0.00 73 1017.1
20260904171534 66 7 2.0 4.0 0.00 0.00 0.00 71 1016.9
20260904170109 66 295 0.0 2.0 0.00 0.00 0.00 69 1016.7
20260904164556 66 338 2.0 6.0 0.00 0.00 0.00 69 1016.6
20260904163608 67 256 2.0 6.0 0.00 0.00 0.00 68 1016.9
20260904162556 67 337 1.0 2.0 0.00 0.00 0.00 68 1016.9
20260904161522 69 305 4.0 8.0 0.00 0.00 0.00 64 1017.1
20260904160112 70 299 3.0 7.0 0.00 0.00 0.00 62 1017.1
20260904154520 70 315 3.0 8.0 0.00 0.00 0.00 62 1017.0
20260904153609 71 329 3.0 9.0 0.00 0.00 0.00 60 1016.9
20260904152555 74 260 5.0 11.0 0.00 0.00 0.00 60 1017.0
20260904151611 81 299 5.0 11.0 0.00 0.00 0.00 54 1015.7
20260904150556 81 282 8.0 16.0 0.00 0.00 0.00 54 1015.5
20260904145608 82 301 4.0 11.0 0.00 0.00 0.00 54 1015.0
20260904144056 82 248 4.0 6.0 0.00 0.00 0.00 54 1015.0
20260904143022 82 288 7.0 17.0 0.00 0.00 0.00 53 1015.0
20260904142109 81 273 9.0 20.0 0.00 0.00 0.00 55 1015.0
20260904140520 81 306 7.0 16.0 0.00 0.00 0.00 55 1014.9
20260904135609 81 305 9.0 25.0 0.00 0.01 0.00 55 1015.0
20260904134109 81 291 8.0 22.0 0.00 0.01 0.00 55 1015.0
20260904132557 81 280 9.0 17.0 0.00 0.01 0.00 55 1015.2
20260904131521 81 266 7.0 16.0 0.00 0.01 0.00 56 1015.4
20260904130056 81 0 11.0 17.0 0.00 0.01 0.00 56 1015.6
20260904125109 80 291 8.0 23.0 0.00 0.01 0.00 58 1015.7
20260904124055 80 293 8.0 22.0 0.00 0.01 0.00 58 1015.6
20260904123057 79 296 10.0 20.0 0.00 0.01 0.00 59 1015.9
20260904122020 79 306 8.0 20.0 0.00 0.01 0.00 59 1016.2
20260904121111 78 288 6.0 14.0 0.00 0.01 0.00 60 1016.3
20260904120057 78 293 7.0 15.0 0.00 0.01 0.00 60 1016.3
20260904115108 78 279 8.0 15.0 0.00 0.01 0.00 61 1016.4
20260904114055 78 315 8.0 14.0 0.00 0.01 0.00 61 1016.6
20260904113043 78 277 8.0 20.0 0.00 0.01 0.00 61 1016.7
20260904112032 77 260 7.0 22.0 0.00 0.01 0.00 62 1017.0
20260904111020 77 306 7.0 16.0 0.00 0.01 0.00 63 1017.1
20260904110108 77 314 7.0 20.0 0.00 0.01 0.00 63 1017.2
20260904104545 76 350 6.0 17.0 0.00 0.01 0.00 64 1017.2
20260904103021 76 298 7.0 20.0 0.00 0.01 0.00 64 1017.7
20260904102109 77 322 9.0 20.0 0.00 0.01 0.00 63 1017.9
20260904100557 77 273 6.0 15.0 0.00 0.01 0.00 63 1018.0
20260904095611 76 302 8.0 21.0 0.00 0.01 0.00 63 1018.3
20260904094556 77 311 7.0 15.0 0.00 0.01 0.00 62 1018.3
20260904093521 76 323 8.0 18.0 0.00 0.01 0.00 62 1018.2
20260904092109 74 303 7.0 15.0 0.00 0.01 0.00 66 1018.3
20260904090558 74 305 9.0 17.0 0.00 0.01 0.00 66 1018.7
20260904085612 74 286 7.0 16.0 0.00 0.01 0.00 67 1018.8
20260904084555 73 238 5.0 14.0 0.00 0.01 0.00 69 1019.1
20260904083521 72 277 6.0 15.0 0.00 0.01 0.00 70 1019.2
20260904082032 72 324 5.0 16.0 0.00 0.01 0.00 72 1019.4
20260904081021 73 291 5.0 14.0 0.00 0.01 0.00 71 1019.4
20260904080109 72 282 5.0 11.0 0.00 0.01 0.00 72 1019.4
20260904074557 72 281 2.0 4.0 0.00 0.01 0.00 74 1019.6
20260904073608 71 316 4.0 11.0 0.00 0.01 0.00 74 1019.5
20260904072556 71 255 3.0 7.0 0.00 0.01 0.00 77 1019.7
20260904071609 70 326 2.0 6.0 0.00 0.01 0.00 78 1019.9
20260904070559 69 191 1.0 2.0 0.00 0.01 0.00 80 1020.1
20260904065544 69 193 1.0 2.0 0.00 0.01 0.00 80 1020.2
20260904064532 68 321 2.0 6.0 0.00 0.01 0.00 82 1020.2
20260904063521 67 315 2.0 4.0 0.00 0.01 0.00 84 1020.3
20260904062110 67 354 1.0 2.0 0.00 0.01 0.00 85 1020.5
20260904060520 66 38 2.0 6.0 0.00 0.01 0.00 86 1020.7
20260904055610 66 135 0.0 4.0 0.00 0.01 0.00 86 1020.7
20260904054111 66 35 1.0 4.0 0.00 0.01 0.00 85 1020.9
20260904052558 66 281 2.0 4.0 0.00 0.01 0.00 85 1020.9
20260904051532 66 232 1.0 4.0 0.00 0.01 0.00 84 1021.2
20260904050522 66 27 0.0 2.0 0.00 0.01 0.00 84 1021.2
20260904045609 66 169 1.0 4.0 0.00 0.01 0.00 84 1021.3
20260904044111 65 343 0.0 2.0 0.00 0.01 0.00 85 1021.2